When you browse on this site, cookies collect data to enhance your experience and personalize the content and advertising you see.
Visit our Privacy Policy to learn more. By continuing to use the site, you agree to this use of cookies and data.
  • In Sweden
  • List of Countries
  • For 7 days
  • Water Temperature
  • Satellite Maps
  • Weather Map
  • Weather Widgets
  • user-avatar
    Login

    Hourly Weather Cleveland

    Today, 17 July, Wednesday

    Time Temperature Precipitation Wind Pressure Humidity
    00:00 +24°C° 0.8 mm 1 mps 739 mmHg 95%
    01:00 +24°C° 1.2 mm 1 mps 739 mmHg 96%
    02:00 +23°C° 1.2 mm 1 mps 738 mmHg 96%
    03:00 +23°C° 1.2 mm 1 mps 738 mmHg 97%
    04:00 +23°C° 0.3 mm 2 mps 739 mmHg 97%
    05:00 +24°C° 0.3 mm 2 mps 739 mmHg 96%
    06:00 +24°C° 0.3 mm 2 mps 739 mmHg 96%
    07:00 +26°C° 0.5 mm 2 mps 739 mmHg 92%
    08:00 +27°C° 0.5 mm 3 mps 739 mmHg 88%
    09:00 +29°C° 0.5 mm 3 mps 739 mmHg 84%
    10:00 +29°C° 1.5 mm 3 mps 739 mmHg 82%
    11:00 +30°C° 1.5 mm 3 mps 739 mmHg 81%
    12:00 +30°C° 1.5 mm 4 mps 739 mmHg 79%
    13:00 +30°C° 1.2 mm 3 mps 738 mmHg 80%
    14:00 +30°C° 1.2 mm 3 mps 738 mmHg 81%
    15:00 +30°C° 1.2 mm 3 mps 738 mmHg 82%
    16:00 +29°C° 1.2 mm 3 mps 738 mmHg 85%
    17:00 +28°C° 1.2 mm 2 mps 738 mmHg 88%
    18:00 +27°C° 1.2 mm 2 mps 737 mmHg 91%
    19:00 +26°C° 0.5 mm 2 mps 738 mmHg 92%
    20:00 +26°C° 0.5 mm 2 mps 738 mmHg 94%
    21:00 +25°C° 0.5 mm 2 mps 738 mmHg 96%
    22:00 +25°C° 0.8 mm 2 mps 738 mmHg 96%
    23:00 +25°C° 0.8 mm 1 mps 738 mmHg 97%

    Tomorrow, 18 July, Thursday

    Time Temperature Precipitation Wind Pressure Humidity
    00:00 +24°C° 0.8 mm 1 mps 738 mmHg 97%
    01:00 +24°C° 0.4 mm 1 mps 737 mmHg 97%
    02:00 +24°C° 0.4 mm 1 mps 737 mmHg 98%
    03:00 +24°C° 0.4 mm 1 mps 737 mmHg 98%
    04:00 +24°C° 0.1 mm 1 mps 737 mmHg 98%
    05:00 +24°C° 0.1 mm 1 mps 737 mmHg 97%
    06:00 +25°C° 0.1 mm 1 mps 738 mmHg 97%
    07:00 +26°C° 0.1 mm 1 mps 738 mmHg 92%
    08:00 +28°C° 0.1 mm 1 mps 738 mmHg 87%
    09:00 +29°C° 0.1 mm 1 mps 738 mmHg 81%
    10:00 +31°C° 0.8 mm 1 mps 738 mmHg 76%
    11:00 +32°C° 0.8 mm 1 mps 738 mmHg 70%
    12:00 +33°C° 0.8 mm 1 mps 738 mmHg 64%
    13:00 +33°C° 0.7 mm 1 mps 737 mmHg 64%
    14:00 +33°C° 0.7 mm 1 mps 737 mmHg 64%
    15:00 +33°C° 0.7 mm 1 mps 737 mmHg 64%
    16:00 +32°C° 0.6 mm 1 mps 737 mmHg 71%
    17:00 +31°C° 0.6 mm 1 mps 737 mmHg 78%
    18:00 +30°C° 0.6 mm 1 mps 737 mmHg 84%
    19:00 +26°C° 0.1 mm 0 mps 737 mmHg 86%
    20:00 +25°C° 0.1 mm 0 mps 737 mmHg 89%
    21:00 +24°C° 0.1 mm 0 mps 737 mmHg 91%
    22:00 +23°C° 0 mm 0 mps 737 mmHg 92%
    23:00 +23°C° 0 mm 0 mps 737 mmHg 92%

    Day after tomorrow, 19 July, Friday

    Time Temperature Precipitation Wind Pressure Humidity
    00:00 +23°C° 0 mm 0 mps 737 mmHg 93%
    01:00 +23°C° 0 mm 0 mps 737 mmHg 94%
    02:00 +22°C° 0 mm 0 mps 737 mmHg 94%
    03:00 +22°C° 0 mm 0 mps 737 mmHg 95%
    04:00 +23°C° 0 mm 0 mps 737 mmHg 94%
    05:00 +23°C° 0 mm 0 mps 738 mmHg 93%
    06:00 +24°C° 0 mm 0 mps 738 mmHg 92%
    07:00 +26°C° 0.1 mm 0 mps 738 mmHg 84%
    08:00 +28°C° 0.1 mm 0 mps 739 mmHg 77%
    09:00 +32°C° 0.1 mm 1 mps 739 mmHg 69%
    10:00 +34°C° 0.2 mm 1 mps 739 mmHg 63%
    11:00 +35°C° 0.2 mm 1 mps 739 mmHg 57%
    12:00 +35°C° 0.2 mm 0 mps 739 mmHg 50%
    13:00 +36°C° 0.1 mm 1 mps 738 mmHg 50%
    14:00 +36°C° 0.1 mm 1 mps 738 mmHg 49%
    15:00 +36°C° 0.1 mm 1 mps 738 mmHg 49%
    16:00 +34°C° 0.2 mm 1 mps 738 mmHg 58%
    17:00 +32°C° 0.2 mm 1 mps 738 mmHg 68%
    18:00 +30°C° 0.2 mm 1 mps 737 mmHg 77%
    19:00 +29°C° 0.3 mm 1 mps 738 mmHg 80%
    20:00 +28°C° 0.3 mm 1 mps 738 mmHg 83%
    21:00 +24°C° 0.3 mm 0 mps 738 mmHg 86%
    22:00 +24°C° 0.1 mm 0 mps 738 mmHg 87%
    23:00 +23°C° 0.1 mm 0 mps 738 mmHg 88%

    20 July, Saturday

    Time Temperature Precipitation Wind Pressure Humidity
    00:00 +23°C° 0.1 mm 0 mps 737 mmHg 90%
    01:00 +23°C° 0.2 mm 0 mps 737 mmHg 91%
    02:00 +23°C° 0.2 mm 0 mps 737 mmHg 92%
    03:00 +22°C° 0.2 mm 0 mps 737 mmHg 94%
    04:00 +23°C° 0.7 mm 0 mps 738 mmHg 93%
    05:00 +23°C° 0.7 mm 0 mps 738 mmHg 93%
    06:00 +23°C° 0.7 mm 0 mps 738 mmHg 93%
    07:00 +26°C° 0.3 mm 0 mps 739 mmHg 86%
    08:00 +28°C° 0.3 mm 0 mps 739 mmHg 79%
    09:00 +30°C° 0.3 mm 0 mps 739 mmHg 73%
    10:00 +32°C° 1.7 mm 1 mps 739 mmHg 70%
    11:00 +33°C° 1.7 mm 1 mps 738 mmHg 66%
    12:00 +33°C° 1.7 mm 1 mps 738 mmHg 63%
    13:00 +33°C° 0.2 mm 1 mps 738 mmHg 61%
    14:00 +34°C° 0.2 mm 1 mps 737 mmHg 58%
    15:00 +35°C° 0.2 mm 2 mps 737 mmHg 55%
    16:00 +32°C° 0.8 mm 2 mps 737 mmHg 66%
    17:00 +30°C° 0.8 mm 1 mps 737 mmHg 76%
    18:00 +29°C° 0.8 mm 1 mps 737 mmHg 86%
    19:00 +28°C° 0.2 mm 1 mps 737 mmHg 88%
    20:00 +27°C° 0.2 mm 1 mps 737 mmHg 89%
    21:00 +24°C° 0.2 mm 0 mps 738 mmHg 91%
    22:00 +23°C° 0 mm 0 mps 737 mmHg 91%
    23:00 +23°C° 0 mm 0 mps 737 mmHg 92%

    21 July, Sunday

    Time Temperature Precipitation Wind Pressure Humidity
    00:00 +23°C° 0 mm 0 mps 737 mmHg 93%
    01:00 +22°C° 0 mm 0 mps 737 mmHg 93%
    02:00 +22°C° 0 mm 0 mps 737 mmHg 94%
    03:00 +24°C° 0 mm 1 mps 737 mmHg 95%
    04:00 +24°C° 0 mm 1 mps 737 mmHg 94%
    05:00 +25°C° 0 mm 1 mps 737 mmHg 93%
    06:00 +25°C° 0 mm 1 mps 738 mmHg 92%
    07:00 +27°C° 0.1 mm 1 mps 738 mmHg 84%
    08:00 +29°C° 0.1 mm 1 mps 738 mmHg 75%
    09:00 +31°C° 0.1 mm 1 mps 739 mmHg 66%
    10:00 +32°C° 0.4 mm 1 mps 738 mmHg 62%
    11:00 +33°C° 0.4 mm 1 mps 738 mmHg 57%
    12:00 +35°C° 0.4 mm 1 mps 738 mmHg 52%
    13:00 +35°C° 0.2 mm 2 mps 737 mmHg 55%
    14:00 +35°C° 0.2 mm 2 mps 737 mmHg 58%
    15:00 +34°C° 0.2 mm 2 mps 737 mmHg 61%
    16:00 +32°C° 0.3 mm 2 mps 736 mmHg 68%
    17:00 +30°C° 0.3 mm 2 mps 736 mmHg 76%
    18:00 +29°C° 0.3 mm 1 mps 736 mmHg 83%
    19:00 +28°C° 0 mm 1 mps 736 mmHg 85%
    20:00 +27°C° 0 mm 1 mps 737 mmHg 87%
    21:00 +26°C° 0 mm 1 mps 737 mmHg 89%
    22:00 +25°C° 0 mm 1 mps 737 mmHg 90%
    23:00 +25°C° 0 mm 1 mps 736 mmHg 91%

    22 July, Monday

    Time Temperature Precipitation Wind Pressure Humidity
    00:00 +24°C° 0 mm 1 mps 736 mmHg 92%
    01:00 +24°C° 0 mm 1 mps 736 mmHg 93%
    02:00 +24°C° 0 mm 1 mps 736 mmHg 93%
    03:00 +21°C° 0 mm 0 mps 736 mmHg 94%
    04:00 +24°C° 0 mm 1 mps 736 mmHg 93%
    05:00 +24°C° 0 mm 1 mps 736 mmHg 92%
    06:00 +25°C° 0 mm 1 mps 736 mmHg 91%
    07:00 +27°C° 0.5 mm 1 mps 736 mmHg 86%
    08:00 +28°C° 0.5 mm 1 mps 737 mmHg 81%
    09:00 +30°C° 0.5 mm 1 mps 737 mmHg 75%
    10:00 +31°C° 0.2 mm 1 mps 737 mmHg 67%
    11:00 +34°C° 0.2 mm 2 mps 736 mmHg 58%
    12:00 +35°C° 0.2 mm 2 mps 736 mmHg 49%
    13:00 +34°C° 0.5 mm 3 mps 736 mmHg 55%
    14:00 +33°C° 0.5 mm 3 mps 736 mmHg 62%
    15:00 +32°C° 0.5 mm 4 mps 735 mmHg 69%
    16:00 +30°C° 1 mm 3 mps 735 mmHg 75%
    17:00 +28°C° 1 mm 2 mps 735 mmHg 82%
    18:00 +26°C° 1 mm 1 mps 735 mmHg 89%
    19:00 +24°C° 0.6 mm 0 mps 735 mmHg 89%
    20:00 +24°C° 0.6 mm 0 mps 735 mmHg 89%
    21:00 +23°C° 0.6 mm 0 mps 735 mmHg 89%
    22:00 +23°C° 0.1 mm 0 mps 735 mmHg 90%
    23:00 +23°C° 0.1 mm 0 mps 735 mmHg 91%
    Show more